Date String (YYYY-MM-DD hh:mm:ss) UTC,Instrument flags,Ambient pressure (hPa),Sample flow (lpm),Bypass flow (lpm),Sample temperature (°C),Ambient temperature (°C),ASC tube jacket temperature (°C),LED temperature (°C),Box temperature (°C),Sample RH (%),Span deviation,Mass concentration (μg/m³),Mass concentration (μg/m³),Mass concentration (μg/m³)
DateTimeUTC,F1_M11,P_M11,Q1_M11,Q2_M11,T1_M11,T2_M11,T3_M11,T4_M11,T5_M11,U1_M11,ZSPAN_M11,X0_M11,X2_M11,X1_M11
2022-12-19 01:00:00,,0819.3,5.02,0.00,22.8,21.4,00.0,31.8,24.6,04.3,0000.0,0005.94,0002.55,0001.87
2022-12-19 01:01:00,,0819.2,5.03,0.00,22.8,21.4,00.0,31.8,24.6,04.3,0000.0,0005.79,0002.51,0001.83
2022-12-19 01:02:00,,0819.2,4.95,0.00,22.8,21.4,00.0,31.8,24.5,04.4,0000.0,0005.73,0002.47,0001.80
2022-12-19 01:03:00,,0819.3,5.03,0.00,22.8,21.3,00.0,31.8,24.5,04.5,0000.0,0005.62,0002.39,0001.76
2022-12-19 01:04:00,,0819.3,5.02,0.00,22.8,21.3,00.0,31.7,24.4,04.5,0000.0,0005.38,0002.32,0001.73
2022-12-19 01:05:00,,0819.3,4.94,0.00,22.8,21.3,00.0,31.7,24.4,04.6,0000.0,0005.35,0002.33,0001.73
2022-12-19 01:06:00,,0819.3,5.03,0.00,22.8,21.3,00.0,31.7,24.4,04.5,0000.0,0003.85,0002.21,0001.70
2022-12-19 01:07:00,,0819.3,5.03,0.00,22.7,21.3,00.0,31.7,24.4,04.5,0000.0,0004.14,0002.18,0001.69
2022-12-19 01:08:00,,0819.3,4.94,0.00,22.7,21.2,00.0,31.7,24.4,04.5,0000.0,0003.95,0002.12,0001.68
2022-12-19 01:09:00,,0819.3,5.02,0.00,22.7,21.2,00.0,31.7,24.4,04.5,0000.0,0003.88,0002.09,0001.65
2022-12-19 01:10:00,,0819.3,5.02,0.00,22.7,21.2,00.0,31.7,24.4,04.4,0000.0,0003.94,0002.10,0001.64
2022-12-19 01:11:00,,0819.3,4.95,0.00,22.7,21.2,00.0,31.7,24.4,04.4,0000.0,0003.98,0002.14,0001.65
2022-12-19 01:12:00,,0819.4,5.03,0.00,22.7,21.2,00.0,31.6,24.4,04.4,0000.0,0003.92,0002.11,0001.65
2022-12-19 01:13:00,,0819.4,5.03,0.00,22.7,21.2,00.0,31.6,24.4,04.4,0000.0,0003.92,0002.10,0001.64
2022-12-19 01:14:00,,0819.4,4.95,0.00,22.7,21.3,00.0,31.6,24.5,04.8,0000.0,0004.55,0002.18,0001.66
2022-12-19 01:15:00,,0819.4,5.02,0.00,22.7,21.3,00.0,31.6,24.5,05.5,0000.0,0007.53,0002.53,0001.79
2022-12-19 01:16:00,,0819.4,5.04,0.00,22.7,21.3,00.0,31.6,24.5,05.6,0000.0,0009.72,0002.88,0001.96
2022-12-19 01:17:00,,0819.4,4.96,0.00,22.7,21.3,00.0,31.6,24.5,05.7,0000.0,0011.57,0003.25,0002.16
2022-12-19 01:18:00,,0819.5,5.02,0.00,22.7,21.3,00.0,31.6,24.5,05.8,0000.0,0014.03,0003.54,0002.33
2022-12-19 01:19:00,,0819.5,5.02,0.00,22.7,21.3,00.0,31.6,24.5,05.8,0000.0,0015.85,0003.75,0002.47
2022-12-19 01:20:00,,0819.5,4.95,0.00,22.7,21.3,00.0,31.6,24.5,05.8,0000.0,0017.66,0003.95,0002.64
2022-12-19 01:21:00,,0819.5,5.02,0.00,22.6,21.2,00.0,31.6,24.5,05.9,0000.0,0019.76,0004.25,0002.84
2022-12-19 01:22:00,,0819.4,5.01,0.00,22.6,21.1,00.0,31.6,24.5,06.0,0000.0,0021.36,0004.48,0003.05
2022-12-19 01:23:00,,0819.4,4.99,0.00,22.6,21.1,00.0,31.6,24.5,06.0,0000.0,0022.57,0004.83,0003.21
2022-12-19 01:24:00,,0819.5,4.97,0.00,22.6,21.1,00.0,31.6,24.4,06.0,0000.0,0023.82,0005.15,0003.35
2022-12-19 01:25:00,,0819.5,5.02,0.00,22.6,21.1,00.0,31.6,24.4,06.1,0000.0,0025.44,0005.44,0003.49
2022-12-19 01:26:00,,0819.5,5.04,0.00,22.6,21.1,00.0,31.5,24.4,06.2,0000.0,0025.96,0005.62,0003.61
2022-12-19 01:27:00,,0819.5,4.96,0.00,22.6,21.1,00.0,31.5,24.4,06.3,0000.0,0025.44,0005.77,0003.70
2022-12-19 01:28:00,,0819.4,5.00,0.00,22.6,21.1,00.0,31.5,24.4,06.3,0000.0,0024.47,0005.87,0003.84
2022-12-19 01:29:00,,0819.5,5.02,0.00,22.6,21.2,00.0,31.5,24.4,06.4,0000.0,0023.10,0005.97,0003.99
2022-12-19 01:30:00,,0819.5,5.00,0.00,22.6,21.2,00.0,31.5,24.4,06.4,0000.0,0022.33,0006.14,0004.16
2022-12-19 01:31:00,,0819.6,4.97,0.00,22.6,21.2,00.0,31.5,24.4,06.4,0000.0,0023.30,0006.32,0004.34
2022-12-19 01:32:00,,0819.5,5.02,0.00,22.6,21.2,00.0,31.5,24.4,06.4,0000.0,0023.20,0006.44,0004.50
2022-12-19 01:33:00,,0819.5,5.01,0.00,22.6,21.2,00.0,31.5,24.4,06.5,0000.5,0022.97,0006.62,0004.67
2022-12-19 01:34:00,,0819.5,4.96,0.00,22.6,21.2,00.0,31.5,24.4,06.5,0000.6,0023.66,0006.75,0004.81
2022-12-19 01:35:00,,0819.5,5.04,0.00,22.6,21.2,00.0,31.5,24.4,06.5,0000.6,0024.15,0006.89,0004.96
2022-12-19 01:36:00,,0819.5,5.02,0.00,22.6,21.2,00.0,31.5,24.4,06.5,0001.4,0023.93,0007.02,0005.08
2022-12-19 01:37:00,,0819.6,4.96,0.00,22.6,21.2,00.0,31.5,24.4,06.5,0002.0,0023.53,0007.13,0005.18
2022-12-19 01:38:00,,0819.6,5.03,0.00,22.6,21.2,00.0,31.5,24.4,06.5,0002.4,0022.90,0007.19,0005.26
2022-12-19 01:39:00,,0819.6,5.02,0.00,22.6,21.2,00.0,31.5,24.4,06.5,0002.6,0023.31,0007.24,0005.31
2022-12-19 01:40:00,,0819.6,4.96,0.00,22.6,21.2,00.0,31.5,24.4,06.5,0003.0,0023.36,0007.25,0005.33
2022-12-19 01:41:00,,0819.5,5.03,0.00,22.6,21.2,00.0,31.5,24.4,06.5,0003.2,0023.39,0007.30,0005.35
2022-12-19 01:42:00,,0819.6,5.02,0.00,22.6,21.2,00.0,31.5,24.4,06.5,0003.2,0022.00,0007.36,0005.38
2022-12-19 01:43:00,,0819.5,4.97,0.00,22.6,21.2,00.0,31.5,24.4,06.5,0002.7,0021.36,0007.33,0005.40
2022-12-19 01:44:00,,0819.5,5.01,0.00,22.6,21.2,00.0,31.4,24.4,06.5,0002.7,0021.13,0007.30,0005.42
2022-12-19 01:45:00,,0819.5,5.02,0.00,22.5,21.2,00.0,31.4,24.4,06.5,0002.9,0020.23,0007.23,0005.43
2022-12-19 01:46:00,,0819.6,4.95,0.00,22.5,21.2,00.0,31.4,24.4,06.5,0002.7,0019.64,0007.19,0005.45
2022-12-19 01:47:00,,0819.5,5.02,0.00,22.5,21.2,00.0,31.4,24.4,06.5,0002.0,0019.69,0007.18,0005.46
2022-12-19 01:48:00,,0819.6,5.03,0.00,22.5,21.1,00.0,31.4,24.4,06.5,0001.7,0018.81,0007.09,0005.46
2022-12-19 01:49:00,,0819.6,4.99,0.00,22.5,21.1,00.0,31.4,24.3,06.5,0002.5,0019.44,0007.11,0005.46
2022-12-19 01:50:00,,0819.6,4.98,0.00,22.5,21.1,00.0,31.4,24.3,06.5,0000.6,0019.34,0007.10,0005.44
2022-12-19 01:51:00,,0819.6,5.02,0.00,22.5,21.1,00.0,31.4,24.3,06.5,0002.8,0020.24,0007.11,0005.42
2022-12-19 01:52:00,,0819.6,5.01,0.00,22.5,21.1,00.0,31.4,24.3,06.4,0003.5,0020.53,0007.03,0005.39
2022-12-19 01:53:00,,0819.7,4.95,0.00,22.5,21.0,00.0,31.4,24.3,06.4,0001.1,0020.60,0006.94,0005.34
2022-12-19 01:54:00,,0819.6,5.03,0.00,22.5,21.0,00.0,31.4,24.3,06.4,0002.1,0020.61,0006.95,0005.29
2022-12-19 01:55:00,,0819.6,5.00,0.00,22.4,21.0,00.0,31.4,24.3,06.4,0000.0,0021.51,0006.95,0005.23
2022-12-19 01:56:00,,0819.6,4.96,0.00,22.4,21.0,00.0,31.4,24.3,06.4,0000.0,0023.12,0006.93,0005.19
2022-12-19 01:57:00,,0819.6,5.03,0.00,22.4,21.0,00.0,31.4,24.3,06.4,0000.0,0025.19,0007.01,0005.15
2022-12-19 01:58:00,,0819.6,5.02,0.00,22.4,21.0,00.0,31.4,24.2,06.3,0000.0,0025.40,0006.98,0005.12
2022-12-19 01:59:00,,0819.6,4.95,0.00,22.4,20.9,00.0,31.3,24.2,06.3,0000.0,0026.26,0006.97,0005.10
